This is the latest recevied weather packets stored in our database for station/object KD8FRE. If no packets are shown the sender has not sent any weather packets the latest 10 day(s).
| Time | Temp. | Humidity | Pressure | Rain* | Wind** | Luminosity | Snow |
|---|---|---|---|---|---|---|---|
| 1777700753 | 4.44° C | 58% | 1017.3 hPa | 0 mm | - | 0 W/m² | - |
| 1777700450 | 4.44° C | 59% | 1017.3 hPa | 0 mm | - | 0 W/m² | - |
| 1777700147 | 4.44° C | 60% | 1017.4 hPa | 0 mm | - | 0 W/m² | - |
| 1777699845 | 4.44° C | 59% | 1017.4 hPa | 0 mm | - | 0 W/m² | - |
| 1777699543 | 4.44° C | 60% | 1017.4 hPa | 0 mm | - | 0 W/m² | - |
| 1777699241 | 4.44° C | 60% | 1017.5 hPa | 0 mm | - | 0 W/m² | - |
| 1777698939 | 4.44° C | 59% | 1017.6 hPa | 0 mm | - | 0 W/m² | - |
| 1777698636 | 4.44° C | 59% | 1017.4 hPa | 0 mm | - | 0 W/m² | - |
| 1777698332 | 4.44° C | 60% | 1017.2 hPa | 0 mm | - | 0 W/m² | - |
| 1777698029 | 4.44° C | 60% | 1017.2 hPa | 0 mm | - | 0 W/m² | - |
| 1777697725 | 4.44° C | 60% | 1017.3 hPa | 0 mm | - | 0 W/m² | - |
| 1777697423 | 4.44° C | 61% | 1017.3 hPa | 0 mm | - | 0 W/m² | - |
| 1777697119 | 4.44° C | 61% | 1017 hPa | 0 mm | - | 0 W/m² | - |
| 1777696816 | 5° C | 61% | 1017.2 hPa | 0 mm | - | 0 W/m² | - |
| 1777696514 | 5° C | 62% | 1017.1 hPa | 0 mm | - | 0 W/m² | - |
| 1777696210 | 5° C | 62% | 1016.9 hPa | 0 mm | - | 0 W/m² | - |
| 1777695905 | 5° C | 63% | 1017 hPa | 0 mm | - | 0 W/m² | - |
| 1777695603 | 5° C | 62% | 1017 hPa | 0 mm | - | 0 W/m² | - |
| 1777695300 | 5° C | 62% | 1016.7 hPa | 0 mm | - | 0 W/m² | - |
| 1777694996 | 5° C | 62% | 1016.8 hPa | 0 mm | - | 0 W/m² | - |
| 1777694693 | 5° C | 63% | 1016.8 hPa | 0 mm | - | 0 W/m² | - |
| 1777694390 | 5° C | 61% | 1016.9 hPa | 0 mm | - | 0 W/m² | - |
| 1777694086 | 5° C | 60% | 1016.7 hPa | 0 mm | - | 0 W/m² | - |
| 1777693784 | 5° C | 62% | 1016.6 hPa | 0 mm | - | 0 W/m² | - |
| 1777693482 | 5° C | 65% | 1016.7 hPa | 0 mm | - | 0 W/m² | - |
* Rain latest hour (hover to see other rain measurements)
** Current wind speed in m/s (hover to see current wind gust speed)